Weather History for Bradford, PA

Change the Weather History Date:

Monday, November 11, 2013

  Actual Average Record
Temperature  
Mean Temperature 34 °F 39 °F  
Max Temperature 40 °F 47 °F 69 °F (2012)
Min Temperature 27 °F 31 °F 10 °F (1957)
Degree Days  
Heating Degree Days 31 22  
Month to date heating degree days 281 220  
Since 1 July heating degree days 1110 1213  
Cooling Degree Days 0 0  
Month to date cooling degree days 0 0  
Year to date cooling degree days 334 193  
Moisture  
Dew Point 27 °F    
Average Humidity 72    
Maximum Humidity 89    
Minimum Humidity 54    
Precipitation  
Precipitation 0.09 in 0.12 in 0.60 in (1983)
Month to date precipitation 1.69 1.28  
Year to date precipitation 29.76 38.58  
Sea Level Pressure  
Sea Level Pressure 30.07 in    
Wind  
Wind Speed 7 mph (West)    
Max Wind Speed 17 mph    
Max Gust Speed 27 mph    
Visibility 6 miles    
Events Rain , Snow    
T = Trace of Precipitation, MM = Missing Value Source: NWS Daily Summary

Daily Weather History Graph

Daily Weather History Graph

Search for Another Location

Airport:

Trip Planner

Search our weather history database for the weather conditions in past years. The results will help you decide how hot, cold, wet, or windy it might be!

Date:

Astronomy

Nov. 11, 2013 Rise Set
Actual Time 6:59 AM EST 4:57 PM EST
Civil Twilight 6:29 AM EST 5:27 PM EST
Nautical Twilight 5:56 AM EST 6:00 PM EST
Astronomical Twilight 5:23 AM EST 6:33 PM EST
Moon 1:42 PM EST (11/11) 12:37 AM EST (11/11)
Length of Visible Light 10h 57m
Length of Day
9h 58m
Waxing Gibbous, 66% of the Moon is Illuminated
Nov 11
Waxing Gibbous
Nov 17
Full
Nov 25
Last Quarter
Dec 2
New
Dec 9
First Quarter

Hourly Weather History & Observations

Time (EST) Temp. Windchill Dew Point Humidity Pressure Visibility Wind Dir Wind Speed Gust Speed Precip Events Conditions
12:53 AM 35.1 °F 28.6 °F 26.1 °F 70% 30.21 in 10.0 mi West 8.1 mph - N/A   Overcast
1:53 AM 34.0 °F 28.8 °F 27.0 °F 75% 30.20 in 10.0 mi West 5.8 mph - N/A   Overcast
2:53 AM 35.1 °F 30.1 °F 27.0 °F 72% 30.20 in 10.0 mi West 5.8 mph - N/A   Overcast
3:53 AM 33.1 °F - 27.0 °F 78% 30.18 in 10.0 mi Calm Calm - N/A   Scattered Clouds
4:11 AM 33.1 °F 30.0 °F 27.0 °F 78% 30.14 in 10.0 mi SW 3.5 mph - N/A   Mostly Cloudy
4:53 AM 30.9 °F - 26.1 °F 82% 30.19 in 10.0 mi Calm Calm - N/A   Mostly Cloudy
5:53 AM 32.0 °F 27.5 °F 27.0 °F 82% 30.19 in 10.0 mi Variable 4.6 mph - N/A   Overcast
6:25 AM 32.0 °F 28.7 °F 27.0 °F 82% 30.13 in 10.0 mi SW 3.5 mph - N/A   Overcast
6:53 AM 32.0 °F 28.7 °F 27.0 °F 82% 30.18 in 10.0 mi South 3.5 mph - N/A   Mostly Cloudy
7:53 AM 33.1 °F 25.5 °F 28.0 °F 82% 30.17 in 10.0 mi SW 9.2 mph - N/A   Overcast
8:53 AM 34.0 °F 26.6 °F 27.0 °F 75% 30.17 in 10.0 mi SSW 9.2 mph - N/A   Overcast
9:53 AM 35.1 °F 28.6 °F 27.0 °F 72% 30.15 in 10.0 mi SW 8.1 mph 19.6 mph N/A   Overcast
10:53 AM 37.0 °F 31.6 °F 27.0 °F 67% 30.12 in 10.0 mi WSW 6.9 mph 21.9 mph N/A   Overcast
11:53 AM 37.9 °F 29.6 °F 27.0 °F 65% 30.07 in 10.0 mi SSW 13.8 mph 23.0 mph N/A   Overcast
12:53 PM 39.0 °F 33.4 °F 26.1 °F 60% 30.04 in 10.0 mi SW 8.1 mph 21.9 mph N/A   Overcast
1:53 PM 39.9 °F 35.8 °F 25.0 °F 55% 30.03 in 10.0 mi Variable 5.8 mph - N/A   Overcast
2:53 PM 39.9 °F 35.1 °F 24.1 °F 53% 30.00 in 10.0 mi Variable 6.9 mph 20.7 mph N/A   Overcast
3:53 PM 39.9 °F 36.7 °F 24.1 °F 53% 30.00 in 10.0 mi Variable 4.6 mph - N/A   Overcast
4:53 PM 39.0 °F 32.8 °F 27.0 °F 62% 30.01 in 10.0 mi West 9.2 mph 23.0 mph 0.00 in Rain Light Rain
5:38 PM 35.1 °F 31.0 °F 30.0 °F 82% 29.96 in 2.5 mi WSW 4.6 mph - 0.02 in Snow Light Snow
5:43 PM 35.1 °F 30.1 °F 30.9 °F 85% 29.96 in 2.5 mi WSW 5.8 mph - 0.02 in Snow Light Snow
5:51 PM 35.6 °F 29.2 °F 30.2 °F 81% 29.96 in 3.0 mi WSW 8.1 mph - 0.02 in Snow Light Snow
5:53 PM 35.1 °F 30.1 °F 30.9 °F 85% 30.01 in 3.0 mi WSW 5.8 mph - 0.02 in Snow Light Snow
6:53 PM 34.0 °F 28.0 °F 30.9 °F 89% 30.02 in 3.0 mi WSW 6.9 mph - 0.02 in Snow Light Snow
7:53 PM 34.0 °F 27.2 °F 30.9 °F 89% 30.01 in 3.0 mi WSW 8.1 mph - 0.02 in Snow Light Snow
8:25 PM 34.0 °F 27.2 °F 30.9 °F 89% 29.96 in 2.5 mi West 8.1 mph - 0.01 in Snow Light Snow
8:53 PM 34.0 °F 27.2 °F 30.9 °F 89% 30.02 in 2.0 mi West 8.1 mph - 0.02 in Snow Light Snow
9:01 PM 33.1 °F 25.5 °F 30.9 °F 92% 29.98 in 1.5 mi WNW 9.2 mph - 0.00 in Snow Light Snow
9:26 PM 32.0 °F 22.1 °F 28.0 °F 85% 29.98 in 2.0 mi NNW 13.8 mph - 0.00 in Snow Light Snow
9:32 PM 32.0 °F 23.0 °F 28.0 °F 85% 29.99 in 3.0 mi NNW 11.5 mph - 0.00 in Snow Light Snow
9:53 PM 32.0 °F 22.5 °F 28.0 °F 85% 30.05 in 3.0 mi NNW 12.7 mph - 0.00 in Snow Light Snow
10:00 PM 30.9 °F 20.7 °F 28.0 °F 89% 30.00 in 2.0 mi NNW 13.8 mph - 0.00 in Snow Light Snow
10:20 PM 30.9 °F 21.2 °F 27.0 °F 85% 30.00 in 1.5 mi NNW 12.7 mph - 0.00 in Snow Light Snow
10:53 PM 30.0 °F 20.5 °F 26.1 °F 85% 30.07 in 1.0 mi NNW 11.5 mph - 0.00 in Snow Light Snow
11:18 PM 28.0 °F 17.5 °F 24.1 °F 85% 30.03 in 1.2 mi North 12.7 mph - 0.00 in Snow Light Snow
11:37 PM 28.0 °F 18.6 °F 24.1 °F 85% 30.04 in 1.2 mi North 10.4 mph - 0.00 in Snow Light Snow
11:53 PM 27.0 °F 19.5 °F 24.1 °F 89% 30.09 in 1.2 mi North 6.9 mph - 0.01 in Snow Light Snow